QPF
0.08 0.13 0.25 0.34 0.36 0.31 0.26 0.19 0.11 0.07 0.06 0.05 0.06 0.07 0.09 0.08 0.09 0.11 0.12 0.12 0.10 0.10 0.10 0.12 0.11 0.11 0.11 0.14 0.16 0.17 0.18 0.17 0.17 0.18 0.16 0.15 0.15 0.15 0.14 0.13 0.13 0.13 0.13
0.15 0.26 0.38 0.51 0.55 0.50 0.46 0.35 0.23 0.16 0.12 0.10 0.09 0.09 0.11 0.14 0.15 0.15 0.18 0.20 0.19 0.18 0.19 0.20 0.20 0.21 0.23 0.22 0.21 0.19 0.19 0.19 0.20 0.20 0.19 0.15 0.12 0.10 0.09 0.10 0.10 0.10 0.11
0.35 0.56 0.65 0.65 0.66 0.61 0.56 0.46 0.35 0.27 0.23 0.20 0.17 0.15 0.16 0.19 0.20 0.20 0.23 0.25 0.23 0.24 0.24 0.26 0.27 0.28 0.25 0.21 0.21 0.22 0.23 0.23 0.23 0.22 0.21 0.16 0.11 0.08 0.07 0.07 0.07 0.07 0.07
0.38 0.60 0.74 0.84 0.84 0.72 0.66 0.56 0.41 0.30 0.25 0.24 0.22 0.19 0.19 0.21 0.22 0.25 0.25 0.27 0.28 0.28 0.28 0.28 0.27 0.25 0.21 0.20 0.23 0.25 0.24 0.23 0.20 0.20 0.17 0.15 0.11 0.09 0.08 0.06 0.06 0.05 0.04
0.26 0.41 0.53 0.70 0.80 0.77 0.69 0.57 0.44 0.36 0.33 0.34 0.31 0.31 0.32 0.31 0.31 0.31 0.32 0.33 0.33 0.33 0.31 0.28 0.26 0.28 0.28 0.27 0.24 0.19 0.15 0.15 0.14 0.13 0.12 0.11 0.09 0.08 0.07 0.06 0.05 0.06 0.06
0.14 0.20 0.27 0.36 0.49 0.55 0.63 0.59 0.46 0.38 0.38 0.42 0.40 0.38 0.36 0.34 0.33 0.34 0.36 0.40 0.40 0.37 0.34 0.30 0.29 0.27 0.23 0.18 0.14 0.11 0.08 0.08 0.09 0.09 0.09 0.08 0.09 0.09 0.08 0.08 0.07 0.07 0.07
0.06 0.09 0.10 0.15 0.23 0.31 0.42 0.44 0.41 0.38 0.36 0.38 0.38 0.36 0.37 0.38 0.42 0.47 0.48 0.49 0.45 0.38 0.32 0.27 0.24 0.18 0.12 0.09 0.07 0.05 0.04 0.03 0.04 0.06 0.06 0.07 0.09 0.09 0.09 0.09 0.09 0.08 0.08
0.03 0.04 0.05 0.07 0.10 0.13 0.20 0.30 0.31 0.35 0.31 0.28 0.28 0.28 0.30 0.33 0.36 0.37 0.38 0.34 0.27 0.24 0.20 0.15 0.11 0.08 0.06 0.06 0.06 0.05 0.04 0.03 0.04 0.04 0.04 0.05 0.05 0.05 0.05 0.06 0.07 0.08 0.09
0.03 0.03 0.03 0.04 0.04 0.06 0.10 0.13 0.13 0.16 0.23 0.24 0.21 0.21 0.21 0.20 0.20 0.20 0.18 0.17 0.15 0.12 0.08 0.08 0.06 0.06 0.05 0.04 0.04 0.04 0.03 0.03 0.03 0.03 0.03 0.04 0.04 0.04 0.04 0.05 0.06 0.08 0.12
0.03 0.03 0.03 0.03 0.03 0.04 0.05 0.07 0.08 0.08 0.09 0.10 0.09 0.10 0.12 0.12 0.12 0.11 0.11 0.10 0.08 0.06 0.05 0.04 0.03 0.03 0.02 0.02 0.02 0.03 0.03 0.03 0.03 0.04 0.05 0.06 0.06 0.07 0.08 0.09 0.08 0.09 0.10
0.03 0.02 0.02 0.02 0.02 0.02 0.03 0.03 0.03 0.03 0.05 0.05 0.04 0.05 0.06 0.06 0.05 0.05 0.05 0.04 0.03 0.03 0.03 0.02 0.02 0.02 0.02 0.01 0.02 0.02 0.02 0.03 0.04 0.04 0.05 0.05 0.06 0.06 0.05 0.05 0.05 0.06 0.07
0.02 0.02 0.02 0.02 0.02 0.02 0.02 0.02 0.02 0.02 0.02 0.02 0.02 0.02 0.02 0.03 0.03 0.02 0.02 0.02 0.02 0.02 0.02 0.02 0.01 0.01 0.01 0.01 0.01 0.02 0.02 0.03 0.03 0.03 0.04 0.04 0.05 0.05 0.05 0.06 0.06 0.06 0.06
0.02 0.02 0.02 0.02 0.02 0.02 0.01 0.01 0.02 0.02 0.02 0.02 0.01 0.01 0.01 0.01 0.01 0.01 0.01 0.01 0.01 0.01 0.00 0.00 0.00 0.01 0.01 0.01 0.01 0.02 0.02 0.03 0.03 0.03 0.03 0.03 0.03 0.03 0.03 0.02 0.02 0.02 0.03
0.03 0.03 0.02 0.02 0.02 0.01 0.01 0.01 0.01 0.01 0.01 0.01 0.01 0.01 0.01 0.01 0.00 0.00 0.00 0.00 0.00 0.00 0.00 0.00 0.00 0.00 0.00 0.01 0.01 0.01 0.01 0.01 0.01 0.01 0.01 0.00 0.00 0.00 0.00 0.00 0.00 0.00 0.01
0.03 0.03 0.02 0.02 0.01 0.01 0.01 0.00 0.00 0.00 0.00 0.00 0.00 0.00 0.00 0.00 0.00 0.00 0.00 0.00 0.00 0.00 0.00 0.00 0.00 0.00 0.00 0.00 0.01 0.01 0.01 0.01 0.00 0.00 0.00 0.00 0.00 0.00 0.00 0.00 0.00 0.00 0.00
0.03 0.03 0.04 0.03 0.02 0.01 0.01 0.01 0.00 0.01 0.01 0.00 0.00 0.00 0.00 0.00 0.00 0.00 0.00 0.00 0.00 0.00 0.00 0.00 0.00 0.00 0.00 0.00 0.00 0.00 0.00 0.00 0.00 0.00 0.00 0.00 0.00 0.00 0.00 0.00 0.00 0.00 0.00
0.03 0.04 0.04 0.03 0.02 0.01 0.01 0.01 0.01 0.01 0.01 0.00 0.00 0.00 0.00 0.00 0.00 0.00 0.00 0.00 0.00 0.00 0.00 0.00 0.00 0.00 0.00 0.00 0.00 0.00 0.00 0.00 0.00 0.00 0.00 0.00 0.00 0.00 0.00 0.00 0.00 0.00 0.00
0.04 0.04 0.03 0.02 0.01 0.01 0.01 0.01 0.01 0.01 0.01 0.00 0.00 0.00 0.00 0.00 0.00 0.00 0.00 0.00 0.00 0.00 0.00 0.00 0.00 0.00 0.00 0.00 0.00 0.00 0.00 0.00 0.00 0.00 0.00 0.00 0.00 0.00 0.00 0.00 0.00 0.00 0.00
0.04 0.03 0.02 0.01 0.01 0.01 0.01 0.01 0.01 0.01 0.01 0.00 0.00 0.00 0.00 0.00 0.00 0.00 0.00 0.00 0.00 0.00 0.00 0.01 0.01 0.01 0.00 0.00 0.00 0.00 0.00 0.00 0.00 0.00 0.00 0.00 0.00 0.00 0.00 0.00 0.00 0.00 0.00
0.05 0.04 0.03 0.02 0.02 0.01 0.01 0.01 0.00 0.00 0.00 0.00 0.00 0.00 0.00 0.00 0.00 0.00 0.00 0.00 0.00 0.00 0.00 0.00 0.00 0.00 0.00 0.00 0.00 0.00 0.00 0.00 0.00 0.00 0.00 0.00 0.00 0.00 0.00 0.00 0.00 0.00 0.00
0.05 0.05 0.04 0.03 0.02 0.01 0.01 0.01 0.01 0.00 0.00 0.00 0.00 0.00 0.00 0.00 0.00 0.00 0.00 0.00 0.00 0.00 0.00 0.00 0.00 0.00 0.00 0.00 0.00 0.00 0.00 0.00 0.00 0.00 0.01 0.00 0.00 0.00 0.00 0.00 0.00 0.00 0.00
0.04 0.04 0.03 0.03 0.02 0.02 0.01 0.01 0.01 0.00 0.00 0.00 0.00 0.00 0.00 0.00 0.00 0.00 0.00 0.00 0.00 0.00 0.00 0.00 0.00 0.00 0.00 0.00 0.00 0.00 0.00 0.00 0.00 0.00 0.00 0.00 0.00 0.00 0.00 0.00 0.00 0.00 0.00
0.03 0.02 0.02 0.02 0.02 0.02 0.02 0.01 0.00 0.00 0.00 0.00 0.00 0.00 0.00 0.00 0.00 0.00 0.00 0.00 0.00 0.00 0.00 0.00 0.00 0.00 0.00 0.00 0.00 0.00 0.00 0.00 0.00 0.00 0.00 0.00 0.00 0.00 0.00 0.00 0.00 0.00 0.00
0.02 0.01 0.01 0.02 0.01 0.02 0.01 0.01 0.00 0.00 0.00 0.00 0.00 0.00 0.00 0.00 0.00 0.00 0.00 0.00 0.00 0.00 0.00 0.00 0.00 0.00 0.00 0.00 0.00 0.00 0.00 0.00 0.00 0.00 0.00 0.00 0.01 0.00 0.01 0.01 0.01 0.01 0.01
0.02 0.01 0.01 0.01 0.01 0.01 0.01 0.00 0.00 0.00 0.00 0.00 0.00 0.00 0.00 0.00 0.00 0.00 0.00 0.00 0.00 0.00 0.00 0.00 0.00 0.00 0.00 0.00 0.00 0.00 0.00 0.00 0.00 0.00 0.00 0.01 0.01 0.01 0.01 0.01 0.01 0.02 0.01
0.01 0.01 0.01 0.01 0.00 0.01 0.01 0.01 0.00 0.00 0.00 0.00 0.00 0.00 0.00 0.00 0.00 0.00 0.00 0.00 0.00 0.00 0.00 0.00 0.00 0.00 0.00 0.00 0.00 0.00 0.00 0.00 0.00 0.00 0.01 0.01 0.01 0.01 0.01 0.01 0.01 0.01 0.02
MSLP
1008.83 1008.46 1008.16 1007.98 1007.95 1008.09 1008.39 1008.82 1009.36 1009.94 1010.51 1011.04 1011.49 1011.85 1012.13 1012.36 1012.58 1012.81 1013.09 1013.44 1013.86 1014.33 1014.84 1015.37 1015.87 1016.34 1016.76 1017.12 1017.41 1017.66 1017.86 1018.01 1018.13 1018.21 1018.25 1018.24 1018.18 1018.07 1017.92 1017.74 1017.55 1017.37 1017.23
1009.84 1009.50 1009.22 1009.02 1008.94 1008.99 1009.18 1009.49 1009.90 1010.37 1010.84 1011.27 1011.65 1011.95 1012.20 1012.40 1012.60 1012.83 1013.12 1013.49 1013.94 1014.46 1015.02 1015.58 1016.12 1016.60 1017.01 1017.35 1017.60 1017.80 1017.95 1018.07 1018.16 1018.23 1018.26 1018.25 1018.19 1018.06 1017.88 1017.66 1017.41 1017.17 1016.96
1011.09 1010.81 1010.56 1010.35 1010.23 1010.19 1010.27 1010.45 1010.72 1011.05 1011.40 1011.74 1012.05 1012.30 1012.51 1012.70 1012.89 1013.13 1013.43 1013.81 1014.28 1014.82 1015.40 1015.98 1016.52 1016.99 1017.37 1017.66 1017.87 1018.02 1018.13 1018.21 1018.27 1018.32 1018.35 1018.33 1018.26 1018.13 1017.92 1017.66 1017.37 1017.09 1016.84
1012.41 1012.21 1012.00 1011.81 1011.65 1011.55 1011.53 1011.58 1011.72 1011.92 1012.16 1012.41 1012.65 1012.87 1013.07 1013.26 1013.46 1013.71 1014.02 1014.42 1014.89 1015.43 1016.00 1016.56 1017.07 1017.51 1017.85 1018.11 1018.28 1018.39 1018.46 1018.51 1018.56 1018.59 1018.61 1018.59 1018.51 1018.36 1018.13 1017.85 1017.53 1017.21 1016.94
1013.66 1013.54 1013.39 1013.24 1013.08 1012.93 1012.82 1012.78 1012.80 1012.89 1013.04 1013.22 1013.42 1013.62 1013.82 1014.03 1014.26 1014.54 1014.87 1015.27 1015.73 1016.25 1016.79 1017.31 1017.78 1018.17 1018.48 1018.69 1018.84 1018.92 1018.97 1019.01 1019.05 1019.09 1019.10 1019.07 1018.98 1018.82 1018.58 1018.27 1017.93 1017.60 1017.30
1014.76 1014.72 1014.65 1014.55 1014.40 1014.24 1014.09 1013.97 1013.91 1013.92 1013.99 1014.13 1014.30 1014.51 1014.74 1014.98 1015.25 1015.55 1015.90 1016.30 1016.75 1017.23 1017.72 1018.19 1018.61 1018.95 1019.22 1019.41 1019.53 1019.61 1019.67 1019.71 1019.75 1019.79 1019.80 1019.77 1019.67 1019.50 1019.25 1018.93 1018.58 1018.22 1017.92
1015.68 1015.73 1015.75 1015.71 1015.60 1015.45 1015.28 1015.13 1015.01 1014.97 1015.00 1015.11 1015.29 1015.51 1015.77 1016.05 1016.36 1016.69 1017.05 1017.45 1017.87 1018.30 1018.73 1019.14 1019.50 1019.80 1020.04 1020.21 1020.33 1020.41 1020.48 1020.54 1020.59 1020.64 1020.65 1020.62 1020.52 1020.34 1020.08 1019.75 1019.40 1019.04 1018.72
1016.46 1016.60 1016.70 1016.74 1016.69 1016.58 1016.42 1016.26 1016.13 1016.06 1016.08 1016.18 1016.36 1016.60 1016.89 1017.21 1017.56 1017.91 1018.28 1018.65 1019.03 1019.41 1019.78 1020.11 1020.41 1020.66 1020.86 1021.02 1021.14 1021.24 1021.32 1021.40 1021.47 1021.52 1021.54 1021.50 1021.40 1021.22 1020.96 1020.64 1020.29 1019.94 1019.62
1017.16 1017.38 1017.57 1017.69 1017.71 1017.65 1017.53 1017.40 1017.28 1017.21 1017.23 1017.33 1017.52 1017.78 1018.10 1018.45 1018.80 1019.17 1019.52 1019.86 1020.19 1020.51 1020.80 1021.06 1021.30 1021.49 1021.66 1021.79 1021.91 1022.01 1022.11 1022.20 1022.28 1022.33 1022.35 1022.31 1022.21 1022.03 1021.78 1021.48 1021.15 1020.82 1020.51
1017.83 1018.14 1018.40 1018.60 1018.70 1018.71 1018.65 1018.56 1018.47 1018.43 1018.46 1018.58 1018.78 1019.05 1019.38 1019.73 1020.08 1020.42 1020.75 1021.04 1021.31 1021.55 1021.77 1021.95 1022.12 1022.26 1022.38 1022.49 1022.59 1022.69 1022.78 1022.87 1022.94 1022.99 1022.99 1022.95 1022.85 1022.68 1022.45 1022.17 1021.88 1021.58 1021.30
1018.53 1018.89 1019.23 1019.49 1019.67 1019.75 1019.77 1019.74 1019.71 1019.71 1019.77 1019.91 1020.11 1020.38 1020.69 1021.02 1021.35 1021.65 1021.92 1022.16 1022.35 1022.52 1022.65 1022.76 1022.85 1022.94 1023.01 1023.09 1023.16 1023.24 1023.31 1023.38 1023.43 1023.45 1023.44 1023.38 1023.27 1023.11 1022.91 1022.67 1022.41 1022.16 1021.91
1019.25 1019.66 1020.04 1020.37 1020.61 1020.77 1020.86 1020.90 1020.94 1021.00 1021.10 1021.25 1021.46 1021.72 1022.00 1022.29 1022.56 1022.80 1023.01 1023.17 1023.29 1023.37 1023.43 1023.48 1023.51 1023.54 1023.57 1023.61 1023.65 1023.69 1023.73 1023.76 1023.77 1023.75 1023.71 1023.63 1023.51 1023.35 1023.17 1022.97 1022.76 1022.55 1022.35
1019.97 1020.40 1020.81 1021.17 1021.46 1021.69 1021.86 1021.99 1022.10 1022.22 1022.36 1022.54 1022.74 1022.97 1023.21 1023.44 1023.65 1023.82 1023.95 1024.03 1024.08 1024.10 1024.10 1024.09 1024.08 1024.07 1024.07 1024.07 1024.07 1024.08 1024.07 1024.05 1024.01 1023.95 1023.86 1023.75 1023.61 1023.45 1023.28 1023.11 1022.94 1022.77 1022.61
1020.64 1021.07 1021.49 1021.86 1022.19 1022.46 1022.70 1022.91 1023.10 1023.28 1023.47 1023.67 1023.87 1024.07 1024.26 1024.42 1024.55 1024.64 1024.70 1024.72 1024.71 1024.68 1024.64 1024.60 1024.57 1024.54 1024.51 1024.49 1024.46 1024.43 1024.38 1024.31 1024.22 1024.10 1023.96 1023.81 1023.64 1023.47 1023.31 1023.15 1023.01 1022.87 1022.74
1021.23 1021.63 1022.02 1022.38 1022.73 1023.04 1023.34 1023.61 1023.87 1024.12 1024.35 1024.56 1024.76 1024.92 1025.06 1025.15 1025.21 1025.23 1025.22 1025.19 1025.14 1025.09 1025.04 1024.99 1024.96 1024.93 1024.91 1024.88 1024.84 1024.78 1024.69 1024.58 1024.43 1024.26 1024.07 1023.87 1023.67 1023.47 1023.30 1023.14 1023.00 1022.88 1022.75
1021.69 1022.04 1022.39 1022.73 1023.07 1023.41 1023.75 1024.08 1024.40 1024.69 1024.95 1025.18 1025.36 1025.50 1025.58 1025.62 1025.61 1025.57 1025.52 1025.45 1025.39 1025.33 1025.30 1025.28 1025.27 1025.27 1025.27 1025.25 1025.21 1025.13 1025.01 1024.85 1024.66 1024.44 1024.19 1023.94 1023.70 1023.48 1023.28 1023.11 1022.96 1022.82 1022.69
1022.01 1022.31 1022.61 1022.92 1023.25 1023.60 1023.96 1024.33 1024.68 1025.01 1025.30 1025.53 1025.69 1025.80 1025.84 1025.83 1025.77 1025.70 1025.62 1025.54 1025.49 1025.46 1025.45 1025.48 1025.52 1025.56 1025.58 1025.58 1025.55 1025.46 1025.32 1025.13 1024.89 1024.62 1024.33 1024.04 1023.75 1023.49 1023.26 1023.05 1022.87 1022.71 1022.55
1022.23 1022.48 1022.74 1023.01 1023.33 1023.67 1024.04 1024.42 1024.79 1025.13 1025.43 1025.65 1025.80 1025.88 1025.89 1025.85 1025.77 1025.68 1025.59 1025.53 1025.50 1025.51 1025.56 1025.63 1025.72 1025.80 1025.86 1025.88 1025.85 1025.76 1025.59 1025.37 1025.09 1024.78 1024.45 1024.11 1023.78 1023.48 1023.21 1022.97 1022.75 1022.54 1022.34
1022.38 1022.60 1022.82 1023.08 1023.37 1023.70 1024.06 1024.44 1024.81 1025.15 1025.43 1025.65 1025.78 1025.84 1025.84 1025.78 1025.70 1025.62 1025.55 1025.52 1025.53 1025.58 1025.68 1025.80 1025.93 1026.04 1026.13 1026.15 1026.11 1026.00 1025.81 1025.56 1025.24 1024.89 1024.51 1024.13 1023.77 1023.43 1023.12 1022.83 1022.57 1022.32 1022.08
1022.52 1022.73 1022.94 1023.17 1023.45 1023.76 1024.11 1024.47 1024.82 1025.14 1025.40 1025.60 1025.72 1025.78 1025.77 1025.73 1025.66 1025.61 1025.58 1025.59 1025.64 1025.74 1025.87 1026.03 1026.18 1026.30 1026.38 1026.40 1026.34 1026.19 1025.97 1025.67 1025.32 1024.92 1024.51 1024.10 1023.70 1023.33 1022.98 1022.66 1022.36 1022.07 1021.78
1022.67 1022.90 1023.11 1023.35 1023.61 1023.90 1024.22 1024.55 1024.87 1025.16 1025.40 1025.58 1025.70 1025.76 1025.77 1025.76 1025.73 1025.72 1025.73 1025.79 1025.89 1026.02 1026.17 1026.34 1026.49 1026.59 1026.65 1026.63 1026.52 1026.33 1026.06 1025.72 1025.32 1024.89 1024.45 1024.01 1023.58 1023.19 1022.82 1022.48 1022.15 1021.83 1021.51
1022.87 1023.12 1023.36 1023.59 1023.84 1024.11 1024.39 1024.68 1024.96 1025.22 1025.44 1025.61 1025.74 1025.82 1025.87 1025.89 1025.92 1025.96 1026.03 1026.13 1026.25 1026.41 1026.56 1026.71 1026.83 1026.90 1026.91 1026.83 1026.67 1026.43 1026.10 1025.71 1025.28 1024.82 1024.35 1023.90 1023.46 1023.05 1022.68 1022.32 1021.98 1021.65 1021.30
1023.11 1023.39 1023.64 1023.88 1024.11 1024.35 1024.60 1024.84 1025.08 1025.31 1025.51 1025.68 1025.82 1025.93 1026.03 1026.12 1026.21 1026.30 1026.42 1026.55 1026.70 1026.85 1026.99 1027.10 1027.18 1027.19 1027.13 1026.99 1026.77 1026.47 1026.10 1025.68 1025.22 1024.74 1024.27 1023.81 1023.38 1022.98 1022.61 1022.25 1021.91 1021.57 1021.22
1023.36 1023.66 1023.92 1024.15 1024.37 1024.57 1024.77 1024.97 1025.17 1025.37 1025.56 1025.74 1025.90 1026.06 1026.21 1026.36 1026.51 1026.66 1026.82 1026.97 1027.12 1027.26 1027.37 1027.43 1027.45 1027.40 1027.28 1027.08 1026.81 1026.47 1026.07 1025.63 1025.17 1024.70 1024.24 1023.80 1023.39 1023.00 1022.65 1022.31 1021.98 1021.65 1021.30
1023.59 1023.89 1024.15 1024.36 1024.54 1024.71 1024.87 1025.03 1025.19 1025.36 1025.55 1025.74 1025.93 1026.13 1026.34 1026.55 1026.75 1026.94 1027.13 1027.29 1027.43 1027.54 1027.61 1027.62 1027.58 1027.47 1027.30 1027.06 1026.76 1026.41 1026.01 1025.59 1025.15 1024.71 1024.29 1023.89 1023.51 1023.17 1022.84 1022.53 1022.22 1021.90 1021.55
1023.76 1024.05 1024.28 1024.46 1024.60 1024.73 1024.85 1024.97 1025.10 1025.26 1025.44 1025.65 1025.87 1026.12 1026.37 1026.62 1026.86 1027.08 1027.28 1027.44 1027.56 1027.63 1027.65 1027.62 1027.53 1027.39 1027.19 1026.94 1026.64 1026.31 1025.95 1025.57 1025.19 1024.81 1024.44 1024.10 1023.78 1023.48 1023.19 1022.91 1022.61 1022.31 1021.97
Thickness
5748 5754 5759 5762 5763 5761 5758 5755 5758 5759 5758 5754 5750 5746 5743 5742 5742 5741 5738 5737 5736 5734 5731 5728 5726 5723 5719 5716 5715 5713 5709 5705 5702 5698 5695 5694 5693 5692 5692 5691 5690 5688 5687
5736 5741 5745 5748 5749 5750 5744 5745 5747 5750 5751 5750 5748 5746 5742 5739 5737 5734 5732 5730 5728 5726 5724 5722 5719 5716 5713 5710 5708 5706 5702 5699 5696 5692 5687 5683 5684 5685 5684 5683 5682 5682 5680
5724 5729 5734 5735 5735 5736 5734 5733 5736 5739 5741 5741 5740 5738 5735 5731 5727 5724 5722 5721 5720 5719 5717 5715 5712 5710 5707 5703 5702 5701 5697 5693 5691 5689 5683 5678 5676 5677 5676 5674 5674 5673 5671
5715 5718 5721 5723 5722 5723 5727 5723 5724 5728 5730 5731 5730 5728 5724 5720 5717 5714 5712 5710 5710 5709 5708 5706 5703 5700 5698 5696 5695 5694 5692 5688 5684 5682 5681 5679 5676 5670 5668 5666 5664 5663 5661
5703 5705 5708 5710 5712 5712 5713 5711 5713 5715 5718 5719 5720 5718 5714 5711 5708 5706 5702 5699 5698 5697 5695 5694 5691 5688 5686 5684 5683 5683 5681 5680 5677 5675 5673 5672 5669 5666 5662 5658 5655 5652 5650
5692 5694 5697 5698 5700 5701 5700 5698 5700 5701 5705 5706 5706 5705 5703 5701 5698 5694 5690 5688 5685 5684 5682 5681 5678 5676 5674 5672 5670 5669 5669 5668 5666 5664 5662 5659 5657 5655 5653 5649 5645 5641 5638
5680 5681 5683 5684 5684 5685 5685 5686 5686 5687 5690 5691 5690 5691 5690 5687 5685 5681 5678 5675 5672 5669 5666 5666 5664 5662 5660 5659 5657 5656 5654 5653 5652 5649 5646 5643 5641 5640 5640 5637 5633 5629 5624
5665 5666 5667 5668 5669 5670 5671 5673 5673 5673 5675 5676 5675 5675 5675 5673 5669 5667 5664 5661 5656 5652 5651 5651 5649 5647 5645 5644 5643 5641 5639 5637 5636 5633 5630 5628 5626 5625 5623 5621 5618 5615 5609
5652 5652 5653 5654 5655 5656 5657 5658 5659 5659 5661 5661 5661 5660 5659 5656 5653 5651 5649 5645 5640 5638 5637 5637 5634 5632 5630 5629 5628 5625 5623 5621 5619 5616 5614 5611 5608 5607 5606 5604 5601 5599 5593
5639 5639 5640 5640 5640 5641 5641 5643 5644 5644 5644 5645 5646 5644 5642 5640 5638 5636 5632 5628 5626 5624 5623 5621 5619 5617 5615 5613 5611 5608 5606 5604 5601 5599 5596 5593 5591 5590 5588 5585 5583 5579 5575
5628 5628 5628 5627 5627 5628 5629 5629 5629 5630 5629 5629 5629 5628 5626 5624 5622 5619 5616 5614 5612 5610 5608 5605 5602 5600 5598 5596 5594 5591 5589 5586 5584 5581 5579 5575 5573 5571 5568 5566 5563 5560 5557
5619 5618 5616 5616 5616 5615 5615 5615 5614 5614 5613 5612 5613 5612 5610 5608 5606 5603 5601 5599 5597 5594 5592 5589 5587 5584 5581 5579 5577 5574 5572 5569 5567 5564 5561 5558 5556 5552 5549 5546 5544 5540 5537
5608 5607 5605 5604 5603 5602 5601 5600 5599 5598 5597 5598 5598 5596 5594 5592 5590 5587 5585 5583 5581 5578 5576 5574 5571 5567 5564 5562 5559 5557 5555 5552 5549 5547 5544 5541 5538 5534 5530 5527 5524 5521 5519
5598 5595 5593 5591 5590 5589 5588 5587 5585 5584 5584 5583 5582 5580 5578 5576 5574 5572 5570 5568 5565 5563 5560 5557 5554 5551 5548 5546 5544 5541 5538 5536 5534 5531 5527 5524 5520 5516 5513 5509 5505 5503 5500
5587 5584 5582 5579 5577 5575 5574 5573 5571 5570 5569 5568 5566 5564 5563 5561 5559 5557 5555 5553 5551 5548 5545 5542 5539 5536 5533 5531 5528 5526 5523 5520 5517 5514 5511 5507 5504 5500 5496 5493 5489 5486 5482
5579 5575 5572 5569 5566 5563 5561 5559 5557 5556 5555 5554 5552 5550 5549 5548 5546 5544 5541 5539 5536 5533 5530 5527 5524 5522 5519 5517 5515 5512 5508 5505 5501 5497 5494 5491 5487 5483 5480 5477 5475 5473 5470
5570 5566 5562 5558 5554 5551 5549 5547 5546 5545 5543 5541 5540 5538 5536 5535 5533 5532 5528 5525 5522 5520 5517 5514 5511 5508 5506 5504 5501 5499 5495 5491 5487 5483 5479 5476 5472 5469 5466 5464 5463 5462 5462
5560 5555 5551 5548 5545 5542 5539 5538 5536 5534 5532 5530 5529 5527 5526 5524 5522 5520 5517 5514 5512 5509 5506 5503 5500 5497 5494 5492 5489 5486 5482 5478 5475 5471 5468 5464 5461 5459 5455 5453 5452 5452 5453
5550 5546 5542 5539 5536 5533 5531 5529 5526 5525 5523 5521 5519 5517 5516 5514 5512 5510 5507 5505 5503 5500 5497 5493 5490 5486 5483 5481 5478 5475 5471 5467 5464 5462 5459 5457 5454 5452 5449 5447 5445 5446 5448
5542 5538 5534 5530 5527 5525 5523 5520 5517 5515 5513 5512 5511 5509 5507 5505 5504 5502 5500 5498 5495 5492 5489 5485 5481 5477 5474 5472 5469 5465 5462 5458 5456 5455 5453 5452 5451 5449 5447 5445 5443 5442 5445
5534 5530 5526 5522 5519 5517 5515 5511 5509 5507 5506 5505 5503 5501 5500 5498 5497 5495 5493 5491 5488 5484 5480 5476 5472 5469 5466 5463 5461 5459 5456 5453 5451 5450 5450 5450 5451 5450 5450 5448 5446 5445 5446
5527 5523 5519 5515 5513 5511 5508 5504 5501 5501 5500 5498 5496 5495 5493 5493 5491 5488 5485 5483 5480 5476 5472 5468 5464 5461 5459 5457 5455 5454 5453 5452 5450 5449 5450 5451 5453 5454 5454 5453 5452 5451 5450
5521 5517 5513 5509 5506 5504 5502 5498 5496 5496 5495 5492 5490 5488 5487 5485 5483 5481 5478 5474 5471 5468 5464 5461 5457 5455 5454 5453 5452 5451 5451 5451 5450 5451 5452 5454 5456 5456 5456 5456 5455 5454 5452
5515 5511 5507 5503 5500 5498 5497 5494 5493 5491 5489 5486 5484 5483 5481 5478 5476 5474 5472 5468 5465 5462 5460 5457 5454 5452 5450 5450 5450 5450 5450 5451 5451 5452 5454 5456 5457 5456 5456 5456 5455 5454 5452
5510 5506 5502 5498 5495 5493 5491 5490 5488 5486 5483 5481 5479 5477 5475 5473 5470 5468 5465 5463 5461 5459 5457 5454 5452 5450 5449 5449 5449 5448 5449 5450 5450 5451 5452 5453 5453 5452 5452 5452 5452 5452 5452
5506 5502 5498 5495 5492 5490 5487 5486 5484 5481 5478 5476 5474 5472 5471 5468 5466 5463 5460 5459 5458 5457 5456 5455 5453 5451 5451 5451 5451 5451 5451 5452 5452 5450 5449 5448 5449 5448 5448 5447 5448 5448 5447